Location: Twentynine Palms Airport
(34.1316°N, 115.9458°W)
Time: 09:05:21
(UTC-07:00)

Oscar 19 - Visible Passes

Search period start: 22 May 2015 00:00
Search period end: 01 June 2015 00:00
Orbit: 775 x 790 km, 98.5° (Epoch: 21 May)

Date Brightness Start Highest point End Pass type
(mag) Time Alt. Az. Time Alt. Az. Time Alt. Az.
22 May 11.0 02:19:41 10° NNE 02:23:53 60° N 02:23:53 60° N visible
23 May 11.8 01:48:13 10° NNE 01:51:51 37° ENE 01:51:51 37° ENE visible
23 May 12.3 03:28:37 10° NNW 03:32:11 19° WNW 03:32:25 18° WNW visible
24 May 12.7 01:17:24 10° NE 01:19:48 19° ENE 01:19:48 19° ENE visible
24 May 11.5 02:55:57 10° N 03:00:22 37° WNW 03:00:22 37° WNW visible
25 May 10.9 02:23:56 10° N 02:28:19 63° N 02:28:19 63° N visible
26 May 11.6 01:52:23 10° NNE 01:56:16 42° ENE 01:56:16 42° ENE visible
26 May 12.4 03:33:04 10° NNW 03:36:22 17° WNW 03:36:50 17° WNW visible
27 May 12.6 01:21:28 10° NE 01:24:12 21° ENE 01:24:12 21° ENE visible
27 May 11.6 03:00:16 10° N 03:04:46 33° WNW 03:04:46 33° WNW visible
28 May 10.8 02:28:11 10° N 02:32:43 63° NNW 02:32:43 63° NNW visible
29 May 11.4 01:56:34 10° NNE 02:00:39 47° ENE 02:00:39 47° ENE visible
29 May 12.5 03:37:33 10° NNW 03:40:34 15° WNW 03:41:14 15° WNW visible
30 May 12.4 01:25:32 10° NE 01:28:36 24° ENE 01:28:36 24° ENE visible
30 May 11.7 03:04:36 10° N 03:09:06 30° WNW 03:09:10 30° WNW visible
31 May 13.2 00:55:57 10° ENE 00:56:32 11° ENE 00:56:32 11° ENE visible
31 May 10.8 02:32:26 10° N 02:37:06 61° NW 02:37:06 61° NW visible
